Time,TemperatureF,DewpointF,PressureIn,WindDirection,WindDirectionDegrees,WindSpeedMPH,WindSpeedGustMPH,Humidity,HourlyPrecipIn,Conditions,Clouds,dailyrainin,SoftwareType,DateUTC
2013-11-30 00:01:00,21.2,19.0,30.51,SW,225,2.0,0.0,91,0.00,,OVC003,0.00,VWS V14.01,2013-11-30 05:01:00,
2013-11-30 00:02:00,21.2,19.0,30.51,SW,225,2.0,0.0,91,0.00,,OVC003,0.00,VWS V14.01,2013-11-30 05:02:00,
2013-11-30 00:03:00,21.2,19.0,30.51,SW,225,2.0,0.0,91,0.00,,OVC003,0.00,VWS V14.01,2013-11-30 05:03:00,
2013-11-30 00:04:00,21.2,19.0,30.51,SW,225,2.0,0.0,91,0.00,,OVC003,0.00,VWS V14.01,2013-11-30 05:04:00,
2013-11-30 00:07:00,21.2,19.0,30.51,SW,225,2.0,0.0,91,0.00,,OVC003,0.00,VWS V14.01,2013-11-30 05:07:00,
2013-11-30 00:13:00,21.2,19.0,30.51,SW,225,2.0,0.0,91,0.00,,OVC003,0.00,VWS V14.01,2013-11-30 05:13:00,
2013-11-30 00:18:00,21.3,19.1,30.50,SW,225,2.0,0.0,91,0.00,,OVC003,0.00,VWS V14.01,2013-11-30 05:18:00,
2013-11-30 00:23:00,21.3,19.1,30.50,SW,225,2.0,0.0,91,0.00,,OVC003,0.00,VWS V14.01,2013-11-30 05:23:00,
2013-11-30 00:28:00,21.4,19.2,30.50,SW,225,2.0,0.0,91,0.00,,OVC003,0.00,VWS V14.01,2013-11-30 05:28:00,
2013-11-30 00:33:00,21.5,19.3,30.50,SW,225,2.0,0.0,91,0.00,,OVC003,0.00,VWS V14.01,2013-11-30 05:33:00,
2013-11-30 00:38:00,21.5,19.3,30.50,SW,225,2.0,0.0,91,0.00,,OVC003,0.00,VWS V14.01,2013-11-30 05:38:00,
2013-11-30 00:43:00,21.6,19.4,30.50,SW,225,2.0,0.0,91,0.00,,OVC003,0.00,VWS V14.01,2013-11-30 05:43:00,
2013-11-30 00:48:00,21.7,19.5,30.49,SW,225,2.0,0.0,91,0.00,,OVC003,0.00,VWS V14.01,2013-11-30 05:48:00,
2013-11-30 00:53:00,21.7,19.5,30.49,SW,225,2.0,0.0,91,0.00,,OVC003,0.00,VWS V14.01,2013-11-30 05:53:00,
2013-11-30 00:58:00,21.7,19.5,30.49,SW,225,2.0,0.0,91,0.00,,OVC003,0.00,VWS V14.01,2013-11-30 05:58:00,
2013-11-30 01:03:00,21.7,19.5,30.48,SW,225,2.0,0.0,91,0.00,,OVC003,0.00,VWS V14.01,2013-11-30 06:03:00,
2013-11-30 01:08:00,21.6,19.4,30.48,SW,225,2.0,0.0,91,0.00,,OVC003,0.00,VWS V14.01,2013-11-30 06:08:00,
2013-11-30 01:13:00,21.6,19.4,30.48,SW,225,2.0,0.0,91,0.00,,OVC003,0.00,VWS V14.01,2013-11-30 06:13:00,
2013-11-30 01:18:00,21.7,19.5,30.47,SW,225,2.0,0.0,91,0.00,,OVC003,0.00,VWS V14.01,2013-11-30 06:18:00,
2013-11-30 01:23:00,21.7,19.5,30.47,SW,225,2.0,0.0,91,0.00,,OVC003,0.00,VWS V14.01,2013-11-30 06:23:00,
2013-11-30 01:28:00,21.8,19.6,30.47,SW,225,2.0,0.0,91,0.00,,OVC003,0.00,VWS V14.01,2013-11-30 06:28:00,
2013-11-30 01:33:00,21.8,19.6,30.47,SW,225,2.0,0.0,91,0.00,,OVC003,0.00,VWS V14.01,2013-11-30 06:33:00,
2013-11-30 01:38:00,21.9,19.7,30.47,SW,225,2.0,0.0,91,0.00,,OVC003,0.00,VWS V14.01,2013-11-30 06:38:00,
2013-11-30 01:43:00,21.9,19.7,30.47,SW,225,2.0,0.0,91,0.00,,OVC003,0.00,VWS V14.01,2013-11-30 06:43:00,
2013-11-30 01:48:00,21.9,19.7,30.46,SW,225,2.0,0.0,91,0.00,,OVC003,0.00,VWS V14.01,2013-11-30 06:48:00,
2013-11-30 01:53:00,22.0,19.8,30.46,SW,225,2.0,0.0,91,0.00,,OVC003,0.00,VWS V14.01,2013-11-30 06:53:00,
2013-11-30 01:58:00,22.1,19.9,30.46,SW,225,2.0,0.0,91,0.00,,OVC003,0.00,VWS V14.01,2013-11-30 06:58:00,
2013-11-30 02:03:00,22.4,20.2,30.46,SW,225,2.0,0.0,91,0.00,,OVC003,0.00,VWS V14.01,2013-11-30 07:03:00,
2013-11-30 02:08:00,22.7,20.5,30.46,SSW,195,3.0,3.0,91,0.00,,OVC003,0.00,VWS V14.01,2013-11-30 07:08:00,
2013-11-30 02:13:00,23.0,20.8,30.46,SSW,195,2.0,0.0,91,0.00,,OVC003,0.00,VWS V14.01,2013-11-30 07:13:00,
2013-11-30 02:18:00,23.3,21.1,30.45,SSW,194,2.0,2.0,91,0.00,,OVC003,0.00,VWS V14.01,2013-11-30 07:18:00,
2013-11-30 02:23:00,23.5,21.0,30.45,SSW,195,2.0,0.0,90,0.00,,OVC003,0.00,VWS V14.01,2013-11-30 07:23:00,
2013-11-30 02:28:00,23.8,21.3,30.45,SSW,195,2.0,0.0,90,0.00,,OVC003,0.00,VWS V14.01,2013-11-30 07:28:00,
2013-11-30 02:33:00,23.9,21.4,30.44,SSW,194,2.0,0.0,90,0.00,,OVC003,0.00,VWS V14.01,2013-11-30 07:33:00,
2013-11-30 02:38:00,24.1,21.6,30.44,SSW,195,2.0,2.0,90,0.00,,OVC003,0.00,VWS V14.01,2013-11-30 07:38:00,
2013-11-30 02:43:00,24.3,21.8,30.44,SSW,195,2.0,2.0,90,0.00,,OVC003,0.00,VWS V14.01,2013-11-30 07:43:00,
2013-11-30 02:48:00,24.5,22.0,30.44,SSW,195,2.0,0.0,90,0.00,,OVC003,0.00,VWS V14.01,2013-11-30 07:48:00,
2013-11-30 02:53:00,24.8,22.3,30.44,SSW,194,2.0,2.0,90,0.00,,OVC003,0.00,VWS V14.01,2013-11-30 07:53:00,
2013-11-30 02:58:00,24.9,22.1,30.44,SSW,194,3.0,3.0,89,0.00,,OVC003,0.00,VWS V14.01,2013-11-30 07:58:00,
2013-11-30 03:03:00,25.0,22.2,30.44,SSW,194,2.0,2.0,89,0.00,,OVC003,0.00,VWS V14.01,2013-11-30 08:03:00,
2013-11-30 03:08:00,25.0,22.2,30.44,SSW,194,2.0,0.0,89,0.00,,OVC003,0.00,VWS V14.01,2013-11-30 08:08:00,
2013-11-30 03:13:00,25.0,22.2,30.44,SSW,194,2.0,0.0,89,0.00,,OVC003,0.00,VWS V14.01,2013-11-30 08:13:00,
2013-11-30 03:18:00,25.1,22.3,30.43,SSW,194,2.0,2.0,89,0.00,,OVC003,0.00,VWS V14.01,2013-11-30 08:18:00,
2013-11-30 03:23:00,25.2,22.4,30.43,SSW,194,2.0,0.0,89,0.00,,OVC003,0.00,VWS V14.01,2013-11-30 08:23:00,
2013-11-30 03:28:00,25.2,22.1,30.43,SSW,194,2.0,2.0,88,0.00,,OVC003,0.00,VWS V14.01,2013-11-30 08:28:00,
2013-11-30 03:33:00,25.2,22.1,30.41,SSW,194,2.0,0.0,88,0.00,,OVC003,0.00,VWS V14.01,2013-11-30 08:33:00,
2013-11-30 03:38:00,25.2,22.1,30.41,SSW,194,2.0,0.0,88,0.00,,OVC003,0.00,VWS V14.01,2013-11-30 08:38:00,
2013-11-30 03:43:00,25.3,22.2,30.41,SSW,194,2.0,0.0,88,0.00,,OVC003,0.00,VWS V14.01,2013-11-30 08:43:00,
2013-11-30 03:48:00,25.3,22.2,30.41,South,186,3.0,3.0,88,0.00,,OVC003,0.00,VWS V14.01,2013-11-30 08:48:00,
2013-11-30 03:53:00,25.4,22.4,30.41,South,186,2.0,0.0,88,0.00,,OVC003,0.00,VWS V14.01,2013-11-30 08:53:00,
2013-11-30 03:58:00,25.4,22.4,30.41,South,186,2.0,2.0,88,0.00,,OVC003,0.00,VWS V14.01,2013-11-30 08:58:00,
2013-11-30 04:03:00,25.4,22.4,30.39,South,186,2.0,2.0,88,0.00,,OVC003,0.00,VWS V14.01,2013-11-30 09:03:00,
2013-11-30 04:08:00,25.4,22.4,30.39,South,186,2.0,0.0,88,0.00,,OVC003,0.00,VWS V14.01,2013-11-30 09:08:00,
2013-11-30 04:13:00,25.5,22.5,30.39,South,186,2.0,0.0,88,0.00,,OVC003,0.00,VWS V14.01,2013-11-30 09:13:00,
2013-11-30 04:18:00,25.5,22.5,30.38,South,186,2.0,2.0,88,0.00,,OVC003,0.00,VWS V14.01,2013-11-30 09:18:00,
2013-11-30 04:23:00,25.6,22.5,30.38,South,186,2.0,0.0,88,0.00,,OVC003,0.00,VWS V14.01,2013-11-30 09:23:00,
2013-11-30 04:28:00,25.6,22.5,30.38,South,186,2.0,0.0,88,0.00,,OVC003,0.00,VWS V14.01,2013-11-30 09:28:00,
2013-11-30 04:33:00,25.6,22.5,30.38,South,183,2.0,2.0,88,0.00,,OVC003,0.00,VWS V14.01,2013-11-30 09:33:00,
2013-11-30 04:38:00,25.6,22.5,30.38,South,183,2.0,0.0,88,0.00,,OVC003,0.00,VWS V14.01,2013-11-30 09:38:00,
2013-11-30 04:44:00,25.8,22.7,30.38,South,183,2.0,0.0,88,0.00,,OVC003,0.00,VWS V14.01,2013-11-30 09:44:00,
2013-11-30 04:49:00,25.8,22.7,30.38,South,183,2.0,0.0,88,0.00,,OVC003,0.00,VWS V14.01,2013-11-30 09:49:00,
2013-11-30 04:54:00,25.8,22.7,30.38,South,183,2.0,0.0,88,0.00,,OVC003,0.00,VWS V14.01,2013-11-30 09:54:00,
2013-11-30 04:59:00,25.8,22.7,30.38,South,183,2.0,0.0,88,0.00,,OVC003,0.00,VWS V14.01,2013-11-30 09:59:00,
2013-11-30 05:04:00,25.8,22.7,30.37,South,183,2.0,0.0,88,0.00,,OVC003,0.00,VWS V14.01,2013-11-30 10:04:00,
2013-11-30 05:09:00,25.8,22.7,30.37,South,183,4.0,4.0,88,0.00,,OVC003,0.00,VWS V14.01,2013-11-30 10:09:00,
2013-11-30 05:14:00,25.8,22.7,30.37,South,183,2.0,0.0,88,0.00,,OVC003,0.00,VWS V14.01,2013-11-30 10:14:00,
2013-11-30 05:19:00,25.9,22.8,30.37,South,183,2.0,0.0,88,0.00,,OVC003,0.00,VWS V14.01,2013-11-30 10:19:00,
2013-11-30 05:24:00,26.0,22.9,30.37,South,183,2.0,2.0,88,0.00,,OVC003,0.00,VWS V14.01,2013-11-30 10:24:00,
2013-11-30 05:29:00,26.1,22.8,30.37,South,183,2.0,0.0,87,0.00,,OVC003,0.00,VWS V14.01,2013-11-30 10:29:00,
2013-11-30 05:34:00,26.1,22.8,30.36,South,183,2.0,0.0,87,0.00,,OVC003,0.00,VWS V14.01,2013-11-30 10:34:00,
2013-11-30 05:39:00,26.2,22.9,30.36,South,183,2.0,0.0,87,0.00,,OVC003,0.00,VWS V14.01,2013-11-30 10:39:00,
2013-11-30 05:44:00,26.2,22.9,30.36,South,183,2.0,0.0,87,0.00,,OVC003,0.00,VWS V14.01,2013-11-30 10:44:00,
2013-11-30 05:49:00,26.3,23.0,30.36,South,183,2.0,0.0,87,0.00,,OVC003,0.00,VWS V14.01,2013-11-30 10:49:00,
2013-11-30 05:54:00,26.3,23.0,30.36,SSE,149,2.0,2.0,87,0.00,,OVC003,0.00,VWS V14.01,2013-11-30 10:54:00,
2013-11-30 05:59:00,26.4,23.1,30.36,SSE,149,3.0,3.0,87,0.00,,OVC003,0.00,VWS V14.01,2013-11-30 10:59:00,
2013-11-30 06:04:00,26.5,23.2,30.35,SSE,149,2.0,0.0,87,0.00,,OVC003,0.00,VWS V14.01,2013-11-30 11:04:00,
2013-11-30 06:09:00,26.5,23.2,30.35,SSE,149,2.0,0.0,87,0.00,,OVC003,0.00,VWS V14.01,2013-11-30 11:09:00,
2013-11-30 06:14:00,26.6,23.0,30.35,SSE,149,2.0,0.0,86,0.00,,OVC003,0.00,VWS V14.01,2013-11-30 11:14:00,
2013-11-30 06:19:00,26.5,22.9,30.35,SSE,149,2.0,0.0,86,0.00,,OVC003,0.00,VWS V14.01,2013-11-30 11:19:00,
2013-11-30 06:24:00,26.5,22.9,30.35,SSE,149,2.0,2.0,86,0.00,,OVC003,0.00,VWS V14.01,2013-11-30 11:24:00,
2013-11-30 06:29:00,26.5,22.9,30.35,SSE,148,3.0,3.0,86,0.00,,OVC003,0.00,VWS V14.01,2013-11-30 11:29:00,
2013-11-30 06:34:00,26.5,22.9,30.34,SSE,149,2.0,2.0,86,0.00,,OVC003,0.00,VWS V14.01,2013-11-30 11:34:00,
2013-11-30 06:39:00,26.5,22.6,30.34,SSE,148,2.0,0.0,85,0.00,,OVC003,0.00,VWS V14.01,2013-11-30 11:39:00,
2013-11-30 06:44:00,26.5,22.6,30.34,SSE,149,2.0,2.0,85,0.00,,OVC003,0.00,VWS V14.01,2013-11-30 11:44:00,
2013-11-30 06:49:00,26.6,22.7,30.34,SSE,149,3.0,3.0,85,0.00,,OVC003,0.00,VWS V14.01,2013-11-30 11:49:00,
2013-11-30 06:54:00,26.6,22.7,30.34,SSE,148,2.0,0.0,85,0.00,,OVC003,0.00,VWS V14.01,2013-11-30 11:54:00,
2013-11-30 06:59:00,26.6,22.7,30.34,SSE,149,2.0,0.0,85,0.00,,OVC003,0.00,VWS V14.01,2013-11-30 11:59:00,
2013-11-30 07:04:00,26.5,22.6,30.33,SSE,149,2.0,2.0,85,0.00,,OVC003,0.00,VWS V14.01,2013-11-30 12:04:00,
2013-11-30 07:09:00,26.4,22.5,30.33,SSE,148,2.0,2.0,85,0.00,,OVC003,0.00,VWS V14.01,2013-11-30 12:09:00,
2013-11-30 07:14:00,26.3,22.4,30.33,SSE,149,2.0,0.0,85,0.00,,OVC003,0.00,VWS V14.01,2013-11-30 12:14:00,
2013-11-30 07:19:00,26.3,22.4,30.33,SSE,149,2.0,2.0,85,0.00,,OVC003,0.00,VWS V14.01,2013-11-30 12:19:00,
2013-11-30 07:24:00,26.3,22.4,30.33,SSE,149,2.0,0.0,85,0.00,,OVC003,0.00,VWS V14.01,2013-11-30 12:24:00,
2013-11-30 07:29:00,26.3,22.4,30.33,SSE,149,2.0,0.0,85,0.00,,OVC003,0.00,VWS V14.01,2013-11-30 12:29:00,
2013-11-30 07:34:00,26.3,22.4,30.32,SSE,149,2.0,0.0,85,0.00,,OVC003,0.00,VWS V14.01,2013-11-30 12:34:00,
2013-11-30 07:39:00,26.4,22.5,30.32,SSE,149,2.0,2.0,85,0.00,,OVC003,0.00,VWS V14.01,2013-11-30 12:39:00,
2013-11-30 07:44:00,26.5,22.6,30.32,SSE,149,2.0,2.0,85,0.00,,OVC003,0.00,VWS V14.01,2013-11-30 12:44:00,
2013-11-30 07:49:00,26.6,22.7,30.32,SSE,148,3.0,3.0,85,0.00,,OVC003,0.00,VWS V14.01,2013-11-30 12:49:00,
2013-11-30 07:54:00,26.7,22.8,30.32,SSE,149,2.0,2.0,85,0.00,,OVC003,0.00,VWS V14.01,2013-11-30 12:54:00,
2013-11-30 07:59:00,26.7,22.8,30.32,SSW,203,3.0,3.0,85,0.00,,OVC003,0.00,VWS V14.01,2013-11-30 12:59:00,
2013-11-30 08:04:00,26.7,22.8,30.31,SSW,204,2.0,0.0,85,0.00,,OVC003,0.00,VWS V14.01,2013-11-30 13:04:00,
2013-11-30 08:09:00,26.7,22.8,30.31,SSW,204,2.0,0.0,85,0.00,,OVC003,0.00,VWS V14.01,2013-11-30 13:09:00,
2013-11-30 08:14:00,26.7,22.8,30.31,SSW,203,2.0,0.0,85,0.00,,OVC003,0.00,VWS V14.01,2013-11-30 13:14:00,
2013-11-30 08:19:00,26.7,22.8,30.31,SSW,205,2.0,2.0,85,0.00,,OVC003,0.00,VWS V14.01,2013-11-30 13:19:00,
2013-11-30 08:24:00,26.8,22.9,30.31,SSW,205,2.0,0.0,85,0.00,,OVC003,0.00,VWS V14.01,2013-11-30 13:24:00,
2013-11-30 08:29:00,26.9,23.0,30.31,SSW,205,3.0,3.0,85,0.00,,OVC003,0.00,VWS V14.01,2013-11-30 13:29:00,
2013-11-30 08:34:00,27.0,23.1,30.31,SSW,205,2.0,2.0,85,0.00,,OVC003,0.00,VWS V14.01,2013-11-30 13:34:00,
2013-11-30 08:39:00,27.2,23.0,30.31,SE,130,2.0,3.0,84,0.00,,OVC003,0.00,VWS V14.01,2013-11-30 13:39:00,
2013-11-30 08:44:00,27.3,25.0,30.31,SE,130,2.0,0.0,91,0.00,,OVC003,0.00,VWS V14.01,2013-11-30 13:44:00,
2013-11-30 08:49:00,27.5,23.3,30.31,SE,130,2.0,2.0,84,0.00,,OVC003,0.00,VWS V14.01,2013-11-30 13:49:00,
2013-11-30 08:54:00,27.8,23.6,30.31,SE,130,2.0,0.0,84,0.00,,OVC003,0.00,VWS V14.01,2013-11-30 13:54:00,
2013-11-30 08:59:00,27.9,23.7,30.31,SE,130,2.0,0.0,84,0.00,,OVC003,0.00,VWS V14.01,2013-11-30 13:59:00,
2013-11-30 09:04:00,28.2,23.7,30.30,SE,130,2.0,2.0,83,0.00,,OVC003,0.00,VWS V14.01,2013-11-30 14:04:00,
2013-11-30 09:09:00,28.5,24.0,30.30,SE,130,2.0,0.0,83,0.00,,OVC003,0.00,VWS V14.01,2013-11-30 14:09:00,
2013-11-30 09:15:00,28.8,24.3,30.30,SE,130,2.0,2.0,83,0.00,,OVC003,0.00,VWS V14.01,2013-11-30 14:15:00,
2013-11-30 09:20:00,29.2,24.4,30.29,SE,130,3.0,3.0,82,0.00,,OVC003,0.00,VWS V14.01,2013-11-30 14:20:00,
2013-11-30 09:25:00,29.5,24.7,30.29,SE,143,2.0,2.0,82,0.00,,OVC003,0.00,VWS V14.01,2013-11-30 14:25:00,
2013-11-30 09:30:00,29.8,24.7,30.29,SW,227,2.0,3.0,81,0.00,,OVC003,0.00,VWS V14.01,2013-11-30 14:30:00,
2013-11-30 09:35:00,30.1,25.0,30.28,SE,141,4.0,4.0,81,0.00,,OVC003,0.00,VWS V14.01,2013-11-30 14:35:00,
2013-11-30 09:40:00,30.4,25.0,30.28,SW,230,4.0,4.0,80,0.00,,OVC003,0.00,VWS V14.01,2013-11-30 14:40:00,
2013-11-30 09:45:00,30.8,25.4,30.28,SE,135,2.0,3.0,80,0.00,,OVC003,0.00,VWS V14.01,2013-11-30 14:45:00,
2013-11-30 09:50:00,31.5,25.8,30.27,SE,133,2.0,2.0,79,0.00,,OVC003,0.00,VWS V14.01,2013-11-30 14:50:00,
2013-11-30 09:55:00,31.9,26.1,30.27,SE,133,2.0,2.0,79,0.00,,OVC003,0.00,VWS V14.01,2013-11-30 14:55:00,
2013-11-30 10:00:00,32.1,25.7,30.27,SSW,198,4.0,5.0,77,0.00,,OVC003,0.00,VWS V14.01,2013-11-30 15:00:00,
2013-11-30 10:05:00,32.1,25.4,30.27,SW,226,2.0,4.0,76,0.00,,OVC003,0.00,VWS V14.01,2013-11-30 15:05:00,
2013-11-30 10:10:00,32.2,25.8,30.27,WSW,244,4.0,4.0,77,0.00,,OVC003,0.00,VWS V14.01,2013-11-30 15:10:00,
2013-11-30 10:15:00,32.4,25.7,30.27,SE,141,4.0,6.0,76,0.00,,OVC003,0.00,VWS V14.01,2013-11-30 15:15:00,
2013-11-30 10:20:00,32.5,25.8,30.25,SW,215,4.0,4.0,76,0.00,,OVC003,0.00,VWS V14.01,2013-11-30 15:20:00,
2013-11-30 10:25:00,32.6,25.9,30.25,SE,137,2.0,4.0,76,0.00,,OVC003,0.00,VWS V14.01,2013-11-30 15:25:00,
2013-11-30 10:30:00,32.7,25.7,30.25,SE,137,2.0,4.0,75,0.00,,OVC003,0.00,VWS V14.01,2013-11-30 15:30:00,
2013-11-30 10:35:00,32.8,25.8,30.25,SE,138,7.0,7.0,75,0.00,,OVC003,0.00,VWS V14.01,2013-11-30 15:35:00,
2013-11-30 10:40:00,33.0,26.0,30.25,SSW,213,4.0,5.0,75,0.00,,OVC003,0.00,VWS V14.01,2013-11-30 15:40:00,
2013-11-30 10:45:00,33.1,26.0,30.25,SW,222,2.0,4.0,75,0.01,,OVC003,0.01,VWS V14.01,2013-11-30 15:45:00,
2013-11-30 10:50:00,33.3,26.2,30.24,West,263,4.0,4.0,75,0.01,,OVC003,0.01,VWS V14.01,2013-11-30 15:50:00,
2013-11-30 10:55:00,33.4,26.3,30.24,WSW,243,2.0,4.0,75,0.01,,OVC003,0.01,VWS V14.01,2013-11-30 15:55:00,
2013-11-30 11:00:00,33.8,26.7,30.24,South,182,4.0,7.0,75,0.01,,OVC003,0.01,VWS V14.01,2013-11-30 16:00:00,
2013-11-30 11:05:00,34.1,26.7,30.22,SW,224,3.0,4.0,74,0.01,,OVC003,0.01,VWS V14.01,2013-11-30 16:05:00,
2013-11-30 11:10:00,34.3,26.9,30.22,SSW,208,5.0,5.0,74,0.01,,OVC003,0.01,VWS V14.01,2013-11-30 16:10:00,
2013-11-30 11:15:00,34.4,26.7,30.22,South,178,2.0,5.0,73,0.01,,OVC003,0.01,VWS V14.01,2013-11-30 16:15:00,
2013-11-30 11:20:00,34.4,26.7,30.22,SW,214,2.0,5.0,73,0.01,,OVC003,0.01,VWS V14.01,2013-11-30 16:20:00,
2013-11-30 11:25:00,34.9,27.1,30.22,SSW,209,6.0,6.0,73,0.01,,OVC003,0.01,VWS V14.01,2013-11-30 16:25:00,
2013-11-30 11:30:00,35.3,27.2,30.22,South,185,4.0,4.0,72,0.02,,OVC003,0.02,VWS V14.01,2013-11-30 16:30:00,
2013-11-30 11:35:00,35.6,27.5,30.21,SSW,202,4.0,5.0,72,0.02,,OVC003,0.02,VWS V14.01,2013-11-30 16:35:00,
2013-11-30 11:40:00,35.7,27.2,30.21,SW,224,5.0,7.0,71,0.02,,OVC003,0.02,VWS V14.01,2013-11-30 16:40:00,
2013-11-30 11:45:00,35.9,27.4,30.21,SW,232,4.0,5.0,71,0.01,,OVC003,0.02,VWS V14.01,2013-11-30 16:45:00,
2013-11-30 11:50:00,36.3,27.8,30.19,South,185,4.0,7.0,71,0.01,,OVC003,0.02,VWS V14.01,2013-11-30 16:50:00,
2013-11-30 11:55:00,36.6,27.4,30.19,WSW,258,5.0,7.0,69,0.01,,OVC003,0.02,VWS V14.01,2013-11-30 16:55:00,
2013-11-30 12:00:00,36.6,27.8,30.19,SW,214,3.0,3.0,70,0.01,,OVC003,0.02,VWS V14.01,2013-11-30 17:00:00,
2013-11-30 12:05:00,36.8,28.3,30.18,WSW,240,2.0,3.0,71,0.02,,OVC003,0.03,VWS V14.01,2013-11-30 17:05:00,
2013-11-30 12:10:00,36.9,28.0,30.18,SSW,202,7.0,7.0,70,0.02,,OVC003,0.03,VWS V14.01,2013-11-30 17:10:00,
2013-11-30 12:15:00,36.9,28.0,30.18,West,274,6.0,6.0,70,0.02,,OVC003,0.03,VWS V14.01,2013-11-30 17:15:00,
2013-11-30 12:20:00,37.0,28.1,30.17,SSE,168,4.0,6.0,70,0.02,,OVC003,0.03,VWS V14.01,2013-11-30 17:20:00,
2013-11-30 12:25:00,37.3,28.4,30.17,West,276,7.0,7.0,70,0.02,,OVC003,0.03,VWS V14.01,2013-11-30 17:25:00,
2013-11-30 12:30:00,37.5,28.3,30.17,SW,230,3.0,5.0,69,0.02,,OVC003,0.03,VWS V14.01,2013-11-30 17:30:00,
2013-11-30 12:35:00,37.7,28.5,30.16,SW,227,6.0,6.0,69,0.01,,OVC003,0.03,VWS V14.01,2013-11-30 17:35:00,
2013-11-30 12:40:00,37.8,28.9,30.16,SSE,152,3.0,5.0,70,0.01,,OVC003,0.03,VWS V14.01,2013-11-30 17:40:00,
2013-11-30 12:45:00,37.9,28.6,30.16,SW,218,3.0,6.0,69,0.01,,OVC003,0.03,VWS V14.01,2013-11-30 17:45:00,
2013-11-30 12:50:00,38.2,29.3,30.15,NW,306,3.0,4.0,70,0.01,,OVC003,0.03,VWS V14.01,2013-11-30 17:50:00,
2013-11-30 12:55:00,38.3,29.0,30.15,SW,234,2.0,5.0,69,0.01,,OVC003,0.03,VWS V14.01,2013-11-30 17:55:00,
2013-11-30 13:00:00,38.6,29.3,30.15,SSW,208,4.0,4.0,69,0.01,,OVC003,0.03,VWS V14.01,2013-11-30 18:00:00,
2013-11-30 13:05:00,38.8,29.5,30.14,SSW,198,4.0,4.0,69,0.02,,OVC003,0.04,VWS V14.01,2013-11-30 18:05:00,
2013-11-30 13:10:00,39.0,29.7,30.14,South,186,2.0,4.0,69,0.01,,OVC003,0.04,VWS V14.01,2013-11-30 18:10:00,
2013-11-30 13:15:00,39.0,29.7,30.14,SW,216,5.0,7.0,69,0.01,,OVC003,0.04,VWS V14.01,2013-11-30 18:15:00,
2013-11-30 13:20:00,39.1,29.8,30.13,South,171,2.0,5.0,69,0.01,,OVC003,0.04,VWS V14.01,2013-11-30 18:20:00,
2013-11-30 13:25:00,39.3,30.0,30.13,South,188,2.0,4.0,69,0.01,,OVC003,0.04,VWS V14.01,2013-11-30 18:25:00,
2013-11-30 13:30:00,39.6,30.3,30.13,South,188,2.0,2.0,69,0.02,,OVC003,0.05,VWS V14.01,2013-11-30 18:30:00,
2013-11-30 13:35:00,39.8,30.1,30.12,West,269,4.0,7.0,68,0.02,,OVC003,0.05,VWS V14.01,2013-11-30 18:35:00,
2013-11-30 13:41:00,40.1,30.4,30.12,WSW,243,4.0,4.0,68,0.02,,OVC003,0.05,VWS V14.01,2013-11-30 18:41:00,
2013-11-30 13:46:00,40.3,30.6,30.12,WSW,247,5.0,5.0,68,0.02,,OVC003,0.05,VWS V14.01,2013-11-30 18:46:00,
2013-11-30 13:51:00,40.4,30.3,30.11,South,191,7.0,7.0,67,0.02,,OVC003,0.05,VWS V14.01,2013-11-30 18:51:00,
2013-11-30 13:56:00,40.7,30.6,30.11,West,263,3.0,5.0,67,0.02,,OVC003,0.05,VWS V14.01,2013-11-30 18:56:00,
2013-11-30 14:01:00,41.1,31.0,30.11,SSW,210,5.0,9.0,67,0.02,,OVC003,0.05,VWS V14.01,2013-11-30 19:01:00,
2013-11-30 14:06:00,41.3,30.8,30.10,WSW,238,4.0,6.0,66,0.02,,OVC003,0.06,VWS V14.01,2013-11-30 19:06:00,
2013-11-30 14:11:00,41.5,31.0,30.10,SW,226,8.0,8.0,66,0.02,,OVC003,0.06,VWS V14.01,2013-11-30 19:11:00,
2013-11-30 14:16:00,41.6,31.1,30.10,West,259,7.0,7.0,66,0.02,,OVC003,0.06,VWS V14.01,2013-11-30 19:16:00,
2013-11-30 14:21:00,41.8,31.3,30.10,SE,138,4.0,5.0,66,0.02,,OVC003,0.06,VWS V14.01,2013-11-30 19:21:00,
2013-11-30 14:26:00,41.9,31.0,30.10,SSW,208,3.0,5.0,65,0.02,,OVC003,0.06,VWS V14.01,2013-11-30 19:26:00,
2013-11-30 14:31:00,41.8,30.9,30.10,SSW,211,9.0,9.0,65,0.02,,OVC003,0.06,VWS V14.01,2013-11-30 19:31:00,
2013-11-30 14:36:00,41.6,31.1,30.09,SSW,194,7.0,7.0,66,0.02,,OVC003,0.07,VWS V14.01,2013-11-30 19:36:00,
2013-11-30 14:41:00,41.5,30.6,30.09,SSW,198,7.0,7.0,65,0.02,,OVC003,0.07,VWS V14.01,2013-11-30 19:41:00,
2013-11-30 14:46:00,41.6,31.1,30.09,SSW,198,2.0,4.0,66,0.02,,OVC003,0.07,VWS V14.01,2013-11-30 19:46:00,
2013-11-30 14:51:00,41.8,31.3,30.08,South,173,4.0,4.0,66,0.02,,OVC003,0.07,VWS V14.01,2013-11-30 19:51:00,
2013-11-30 14:56:00,42.1,31.6,30.08,WSW,239,3.0,3.0,66,0.02,,OVC003,0.07,VWS V14.01,2013-11-30 19:56:00,
2013-11-30 15:01:00,42.2,31.7,30.08,SE,142,3.0,5.0,66,0.02,,OVC003,0.07,VWS V14.01,2013-11-30 20:01:00,
2013-11-30 15:06:00,42.3,31.4,30.08,SW,232,2.0,3.0,65,0.02,,OVC003,0.07,VWS V14.01,2013-11-30 20:06:00,
2013-11-30 15:11:00,42.3,31.4,30.08,ENE,71,2.0,5.0,65,0.01,,OVC003,0.07,VWS V14.01,2013-11-30 20:11:00,
2013-11-30 15:16:00,42.4,31.5,30.08,WSW,245,5.0,5.0,65,0.01,,OVC003,0.07,VWS V14.01,2013-11-30 20:16:00,
2013-11-30 15:21:00,42.4,31.5,30.07,West,272,2.0,4.0,65,0.01,,OVC003,0.07,VWS V14.01,2013-11-30 20:21:00,
2013-11-30 15:26:00,42.5,31.6,30.07,SSW,202,7.0,7.0,65,0.01,,OVC003,0.07,VWS V14.01,2013-11-30 20:26:00,
2013-11-30 15:31:00,42.6,31.3,30.07,SW,221,4.0,6.0,64,0.01,,OVC003,0.07,VWS V14.01,2013-11-30 20:31:00,
2013-11-30 15:36:00,42.7,31.4,30.07,SW,220,3.0,4.0,64,0.01,,OVC003,0.07,VWS V14.01,2013-11-30 20:36:00,
2013-11-30 15:41:00,42.6,31.3,30.07,SW,221,2.0,2.0,64,0.00,,OVC003,0.07,VWS V14.01,2013-11-30 20:41:00,
2013-11-30 15:46:00,42.5,31.2,30.07,SSW,197,2.0,4.0,64,0.00,,OVC003,0.07,VWS V14.01,2013-11-30 20:46:00,
2013-11-30 15:51:00,42.5,31.6,30.06,SW,229,2.0,4.0,65,0.00,,OVC003,0.07,VWS V14.01,2013-11-30 20:51:00,
2013-11-30 15:56:00,42.6,31.3,30.06,West,268,3.0,4.0,64,0.00,,OVC003,0.07,VWS V14.01,2013-11-30 20:56:00,
2013-11-30 16:01:00,42.7,31.4,30.05,WSW,241,3.0,3.0,64,0.00,,OVC003,0.07,VWS V14.01,2013-11-30 21:01:00,
2013-11-30 16:06:00,42.5,31.2,30.05,SSE,149,5.0,5.0,64,0.00,,OVC003,0.07,VWS V14.01,2013-11-30 21:06:00,
2013-11-30 16:11:00,42.4,31.5,30.05,SW,218,3.0,3.0,65,0.00,,OVC003,0.07,VWS V14.01,2013-11-30 21:11:00,
2013-11-30 16:16:00,42.2,31.3,30.05,SW,218,2.0,2.0,65,0.01,,OVC003,0.08,VWS V14.01,2013-11-30 21:16:00,
2013-11-30 16:21:00,41.9,31.4,30.05,South,191,2.0,2.0,66,0.01,,OVC003,0.08,VWS V14.01,2013-11-30 21:21:00,
2013-11-30 16:26:00,41.8,31.3,30.05,SSW,206,2.0,3.0,66,0.01,,OVC003,0.08,VWS V14.01,2013-11-30 21:26:00,
2013-11-30 16:31:00,41.7,31.2,30.05,SSW,207,2.0,2.0,66,0.01,,OVC003,0.08,VWS V14.01,2013-11-30 21:31:00,
2013-11-30 16:36:00,41.6,31.5,30.05,SSW,206,2.0,3.0,67,0.01,,OVC003,0.08,VWS V14.01,2013-11-30 21:36:00,
2013-11-30 16:41:00,41.4,31.3,30.05,SSW,206,2.0,2.0,67,0.01,,OVC003,0.08,VWS V14.01,2013-11-30 21:41:00,
2013-11-30 16:46:00,41.1,31.4,30.05,SSW,206,2.0,2.0,68,0.01,,OVC003,0.08,VWS V14.01,2013-11-30 21:46:00,
2013-11-30 16:51:00,40.7,31.0,30.05,SSW,207,2.0,0.0,68,0.01,,OVC003,0.08,VWS V14.01,2013-11-30 21:51:00,
2013-11-30 16:56:00,40.4,31.0,30.05,SSW,207,2.0,0.0,69,0.01,,OVC003,0.08,VWS V14.01,2013-11-30 21:56:00,
2013-11-30 17:01:00,40.1,30.8,30.05,SSW,206,3.0,3.0,69,0.01,,OVC003,0.08,VWS V14.01,2013-11-30 22:01:00,
2013-11-30 17:06:00,39.8,30.8,30.05,SSW,206,2.0,0.0,70,0.01,,OVC003,0.08,VWS V14.01,2013-11-30 22:06:00,
2013-11-30 17:11:00,39.4,30.4,30.05,SSW,207,2.0,0.0,70,0.01,,OVC003,0.08,VWS V14.01,2013-11-30 22:11:00,
2013-11-30 17:16:00,39.1,30.5,30.04,SSW,206,3.0,3.0,71,0.01,,OVC003,0.08,VWS V14.01,2013-11-30 22:16:00,
2013-11-30 17:21:00,38.7,30.5,30.04,SSW,207,2.0,0.0,72,0.00,,OVC003,0.08,VWS V14.01,2013-11-30 22:21:00,
2013-11-30 17:26:00,38.5,30.6,30.04,SSW,207,2.0,2.0,73,0.00,,OVC003,0.08,VWS V14.01,2013-11-30 22:26:00,
2013-11-30 17:31:00,38.3,30.4,30.04,SSW,207,2.0,2.0,73,0.00,,OVC003,0.08,VWS V14.01,2013-11-30 22:31:00,
2013-11-30 17:36:00,38.1,30.6,30.04,SSW,207,2.0,0.0,74,0.00,,OVC003,0.08,VWS V14.01,2013-11-30 22:36:00,
2013-11-30 17:41:00,37.8,30.3,30.04,SSW,207,2.0,0.0,74,0.00,,OVC003,0.08,VWS V14.01,2013-11-30 22:41:00,
2013-11-30 17:46:00,37.7,30.2,30.04,SSW,206,2.0,0.0,74,0.00,,OVC003,0.08,VWS V14.01,2013-11-30 22:46:00,
2013-11-30 17:51:00,37.5,30.3,30.04,SSW,207,2.0,0.0,75,0.00,,OVC003,0.08,VWS V14.01,2013-11-30 22:51:00,
2013-11-30 17:56:00,37.4,30.2,30.04,SSW,207,2.0,0.0,75,0.00,,OVC003,0.08,VWS V14.01,2013-11-30 22:56:00,
2013-11-30 18:02:00,37.2,30.0,30.04,SSW,207,2.0,0.0,75,0.00,,OVC003,0.08,VWS V14.01,2013-11-30 23:02:00,
2013-11-30 18:07:00,37.0,30.1,30.04,SSW,206,2.0,0.0,76,0.00,,OVC003,0.08,VWS V14.01,2013-11-30 23:07:00,
2013-11-30 18:12:00,36.9,30.0,30.04,SSW,207,2.0,0.0,76,0.00,,OVC003,0.08,VWS V14.01,2013-11-30 23:12:00,
2013-11-30 18:17:00,36.8,30.3,30.04,SSW,207,2.0,0.0,77,0.00,,OVC003,0.08,VWS V14.01,2013-11-30 23:17:00,
2013-11-30 18:22:00,36.8,30.3,30.04,SSW,206,2.0,0.0,77,0.00,,OVC003,0.08,VWS V14.01,2013-11-30 23:22:00,
2013-11-30 18:27:00,36.7,30.2,30.04,SSW,206,2.0,0.0,77,0.00,,OVC003,0.08,VWS V14.01,2013-11-30 23:27:00,
2013-11-30 18:32:00,36.8,30.3,30.04,SSW,207,2.0,0.0,77,0.00,,OVC003,0.08,VWS V14.01,2013-11-30 23:32:00,
2013-11-30 18:37:00,37.0,30.5,30.04,SSW,207,2.0,2.0,77,0.00,,OVC003,0.08,VWS V14.01,2013-11-30 23:37:00,
2013-11-30 18:42:00,37.0,30.5,30.04,SSW,207,2.0,0.0,77,0.00,,OVC003,0.08,VWS V14.01,2013-11-30 23:42:00,
2013-11-30 18:47:00,37.0,30.5,30.03,SSW,207,2.0,2.0,77,0.00,,OVC003,0.08,VWS V14.01,2013-11-30 23:47:00,
2013-11-30 18:52:00,37.0,30.5,30.03,SSW,206,2.0,0.0,77,0.00,,OVC003,0.08,VWS V14.01,2013-11-30 23:52:00,
2013-11-30 18:57:00,37.0,30.5,30.03,SSW,207,2.0,0.0,77,0.00,,OVC003,0.08,VWS V14.01,2013-11-30 23:57:00,
2013-11-30 19:02:00,36.9,30.7,30.03,SSW,206,2.0,0.0,78,0.00,,OVC003,0.08,VWS V14.01,2013-12-01 00:02:00,
2013-11-30 19:07:00,36.8,30.6,30.03,SSW,207,2.0,0.0,78,0.00,,OVC003,0.08,VWS V14.01,2013-12-01 00:07:00,
2013-11-30 19:12:00,36.8,30.6,30.03,SSW,207,2.0,0.0,78,0.00,,OVC003,0.08,VWS V14.01,2013-12-01 00:12:00,
2013-11-30 19:17:00,36.8,30.6,30.03,SSW,206,2.0,0.0,78,0.00,,OVC003,0.08,VWS V14.01,2013-12-01 00:17:00,
2013-11-30 19:22:00,37.0,30.8,30.03,SSW,207,2.0,0.0,78,0.00,,OVC003,0.08,VWS V14.01,2013-12-01 00:22:00,
2013-11-30 19:27:00,37.2,30.7,30.03,SSW,207,2.0,2.0,77,0.00,,OVC003,0.08,VWS V14.01,2013-12-01 00:27:00,
2013-11-30 19:32:00,37.5,31.0,30.03,SSW,207,2.0,0.0,77,0.00,,OVC003,0.08,VWS V14.01,2013-12-01 00:32:00,
2013-11-30 19:37:00,37.7,30.8,30.03,SSW,207,2.0,0.0,76,0.00,,OVC003,0.08,VWS V14.01,2013-12-01 00:37:00,
2013-11-30 19:42:00,37.8,30.9,30.03,SSW,206,2.0,0.0,76,0.00,,OVC003,0.08,VWS V14.01,2013-12-01 00:42:00,
2013-11-30 19:47:00,37.9,31.0,30.03,SSW,207,2.0,0.0,76,0.00,,OVC003,0.08,VWS V14.01,2013-12-01 00:47:00,
2013-11-30 19:52:00,38.0,30.8,30.03,SSW,207,2.0,2.0,75,0.00,,OVC003,0.08,VWS V14.01,2013-12-01 00:52:00,
2013-11-30 19:57:00,38.2,31.0,30.03,SSW,207,2.0,2.0,75,0.00,,OVC003,0.08,VWS V14.01,2013-12-01 00:57:00,
2013-11-30 20:02:00,38.3,31.1,30.02,SSW,206,2.0,0.0,75,0.00,,OVC003,0.08,VWS V14.01,2013-12-01 01:02:00,
2013-11-30 20:07:00,38.4,31.2,30.02,SSW,207,2.0,2.0,75,0.00,,OVC003,0.08,VWS V14.01,2013-12-01 01:07:00,
2013-11-30 20:12:00,38.7,31.1,30.02,SSW,207,2.0,0.0,74,0.00,,OVC003,0.08,VWS V14.01,2013-12-01 01:12:00,
2013-11-30 20:17:00,38.8,31.2,30.02,SSW,207,2.0,0.0,74,0.00,,OVC003,0.08,VWS V14.01,2013-12-01 01:17:00,
2013-11-30 20:22:00,38.8,31.2,30.02,SSW,207,2.0,0.0,74,0.00,,OVC003,0.08,VWS V14.01,2013-12-01 01:22:00,
2013-11-30 20:27:00,38.7,31.1,30.02,SSW,206,2.0,2.0,74,0.00,,OVC003,0.08,VWS V14.01,2013-12-01 01:27:00,
2013-11-30 20:32:00,38.7,31.1,30.02,SSW,207,2.0,0.0,74,0.00,,OVC003,0.08,VWS V14.01,2013-12-01 01:32:00,
2013-11-30 20:37:00,38.5,31.0,30.02,SSW,206,2.0,0.0,74,0.00,,OVC003,0.08,VWS V14.01,2013-12-01 01:37:00,
2013-11-30 20:42:00,38.4,30.9,30.02,SSW,207,2.0,0.0,74,0.00,,OVC003,0.08,VWS V14.01,2013-12-01 01:42:00,
2013-11-30 20:47:00,38.3,30.8,30.02,SSW,206,2.0,0.0,74,0.00,,OVC003,0.08,VWS V14.01,2013-12-01 01:47:00,
2013-11-30 20:52:00,38.2,31.0,30.02,SSW,206,2.0,0.0,75,0.00,,OVC003,0.08,VWS V14.01,2013-12-01 01:52:00,
2013-11-30 20:57:00,38.2,31.0,30.02,SSW,207,2.0,0.0,75,0.00,,OVC003,0.08,VWS V14.01,2013-12-01 01:57:00,
2013-11-30 21:02:00,38.1,30.9,30.02,SSW,207,2.0,0.0,75,0.00,,OVC003,0.08,VWS V14.01,2013-12-01 02:02:00,
2013-11-30 21:07:00,38.0,30.8,30.02,SSW,207,2.0,0.0,75,0.00,,OVC003,0.08,VWS V14.01,2013-12-01 02:07:00,
2013-11-30 21:12:00,38.0,30.8,30.02,SSW,207,2.0,0.0,75,0.00,,OVC003,0.08,VWS V14.01,2013-12-01 02:12:00,
2013-11-30 21:17:00,37.9,31.0,30.02,SSW,206,2.0,0.0,76,0.00,,OVC003,0.08,VWS V14.01,2013-12-01 02:17:00,
2013-11-30 21:22:00,37.7,30.8,30.02,SSW,207,2.0,0.0,76,0.00,,OVC003,0.08,VWS V14.01,2013-12-01 02:22:00,
2013-11-30 21:27:00,37.6,30.7,30.02,SSW,206,2.0,0.0,76,0.00,,OVC003,0.08,VWS V14.01,2013-12-01 02:27:00,
2013-11-30 21:32:00,37.6,30.7,30.02,SSW,206,2.0,0.0,76,0.00,,OVC003,0.08,VWS V14.01,2013-12-01 02:32:00,
2013-11-30 21:37:00,37.5,30.6,30.02,SSW,207,2.0,0.0,76,0.00,,OVC003,0.08,VWS V14.01,2013-12-01 02:37:00,
2013-11-30 21:42:00,37.5,31.0,30.02,SSW,207,2.0,0.0,77,0.00,,OVC003,0.08,VWS V14.01,2013-12-01 02:42:00,
2013-11-30 21:47:00,37.4,30.9,30.02,SSW,207,2.0,0.0,77,0.00,,OVC003,0.08,VWS V14.01,2013-12-01 02:47:00,
2013-11-30 21:52:00,37.3,30.8,30.02,SSW,207,2.0,0.0,77,0.00,,OVC003,0.08,VWS V14.01,2013-12-01 02:52:00,
2013-11-30 21:57:00,37.1,30.6,30.02,SSW,206,2.0,0.0,77,0.00,,OVC003,0.08,VWS V14.01,2013-12-01 02:57:00,
2013-11-30 22:02:00,37.0,30.5,30.02,SSW,207,2.0,0.0,77,0.00,,OVC003,0.08,VWS V14.01,2013-12-01 03:02:00,
2013-11-30 22:07:00,36.9,30.7,30.02,SSW,206,2.0,0.0,78,0.00,,OVC003,0.08,VWS V14.01,2013-12-01 03:07:00,
2013-11-30 22:12:00,36.7,30.5,30.02,SSW,206,2.0,0.0,78,0.00,,OVC003,0.08,VWS V14.01,2013-12-01 03:12:00,
2013-11-30 22:17:00,36.6,30.4,30.02,SSW,206,2.0,0.0,78,0.00,,OVC003,0.08,VWS V14.01,2013-12-01 03:17:00,
2013-11-30 22:23:00,36.6,30.4,30.02,SSW,207,2.0,0.0,78,0.00,,OVC003,0.08,VWS V14.01,2013-12-01 03:23:00,
2013-11-30 22:28:00,36.5,30.3,30.02,SSW,206,2.0,0.0,78,0.00,,OVC003,0.08,VWS V14.01,2013-12-01 03:28:00,
2013-11-30 22:33:00,36.4,30.5,30.02,SSW,207,2.0,0.0,79,0.00,,OVC003,0.08,VWS V14.01,2013-12-01 03:33:00,
2013-11-30 22:38:00,36.2,30.3,30.02,SSW,206,2.0,0.0,79,0.00,,OVC003,0.08,VWS V14.01,2013-12-01 03:38:00,
2013-11-30 22:43:00,36.1,30.5,30.02,SSW,207,2.0,0.0,80,0.00,,OVC003,0.08,VWS V14.01,2013-12-01 03:43:00,
2013-11-30 22:48:00,36.1,30.5,30.02,SSW,207,2.0,0.0,80,0.00,,OVC003,0.08,VWS V14.01,2013-12-01 03:48:00,
2013-11-30 22:53:00,36.1,30.5,30.02,SSW,207,2.0,0.0,80,0.00,,OVC003,0.08,VWS V14.01,2013-12-01 03:53:00,
2013-11-30 22:58:00,36.0,30.4,30.02,SSW,207,2.0,0.0,80,0.00,,OVC003,0.08,VWS V14.01,2013-12-01 03:58:00,
2013-11-30 23:03:00,36.1,30.5,30.01,SSW,207,2.0,0.0,80,0.00,,OVC003,0.08,VWS V14.01,2013-12-01 04:03:00,
2013-11-30 23:08:00,36.3,30.7,30.01,SSW,207,2.0,0.0,80,0.00,,OVC003,0.08,VWS V14.01,2013-12-01 04:08:00,
2013-11-30 23:13:00,36.5,30.9,30.01,SSW,207,2.0,0.0,80,0.00,,OVC003,0.08,VWS V14.01,2013-12-01 04:13:00,
2013-11-30 23:18:00,36.6,30.7,30.00,SSW,206,2.0,0.0,79,0.00,,OVC003,0.08,VWS V14.01,2013-12-01 04:18:00,
2013-11-30 23:23:00,36.7,30.8,30.00,SSW,207,2.0,0.0,79,0.00,,OVC003,0.08,VWS V14.01,2013-12-01 04:23:00,
2013-11-30 23:28:00,36.8,30.6,30.00,SSW,206,2.0,0.0,78,0.00,,OVC003,0.08,VWS V14.01,2013-12-01 04:28:00,
2013-11-30 23:33:00,36.8,30.6,30.00,SSW,206,2.0,0.0,78,0.00,,OVC003,0.08,VWS V14.01,2013-12-01 04:33:00,
2013-11-30 23:38:00,36.7,30.5,30.00,SSW,207,2.0,0.0,78,0.00,,OVC003,0.08,VWS V14.01,2013-12-01 04:38:00,
2013-11-30 23:43:00,36.6,30.4,30.00,SSW,206,2.0,0.0,78,0.00,,OVC003,0.08,VWS V14.01,2013-12-01 04:43:00,
2013-11-30 23:48:00,36.5,30.3,30.00,SSW,207,2.0,0.0,78,0.00,,OVC003,0.08,VWS V14.01,2013-12-01 04:48:00,
2013-11-30 23:53:00,36.5,30.6,30.00,SSW,206,2.0,0.0,79,0.00,,OVC003,0.08,VWS V14.01,2013-12-01 04:53:00,
2013-11-30 23:58:00,36.5,30.6,30.00,SSW,206,2.0,0.0,79,0.00,,OVC003,0.08,VWS V14.01,2013-12-01 04:58:00,